| time (UTC) | temp F | wind direction | speed MPH | gust MPH | rain 1hr in | rain 24hr in | rain mn in | humidity % | barometer mb |
| 20260510202545 | 74 | 356 | 3.0 | 6.0 | 0.00 | 0.00 | 0.00 | 37 | 1017.5 |
| 20260510201605 | 73 | 323 | 4.0 | 6.0 | 0.00 | 0.00 | 0.00 | 37 | 1017.6 |
| 20260510200525 | 72 | 4 | 5.0 | 11.0 | 0.00 | 0.00 | 0.00 | 37 | 1017.5 |
| 20260510195545 | 72 | 23 | 2.0 | 6.0 | 0.00 | 0.00 | 0.00 | 36 | 1017.8 |
| 20260510194526 | 72 | 7 | 4.0 | 8.0 | 0.00 | 0.00 | 0.00 | 36 | 1017.9 |
| 20260510193525 | 72 | 11 | 5.0 | 14.0 | 0.00 | 0.00 | 0.00 | 37 | 1018.0 |
| 20260510192546 | 73 | 2 | 4.0 | 7.0 | 0.00 | 0.00 | 0.00 | 37 | 1017.9 |
| 20260510191526 | 72 | 17 | 4.0 | 6.0 | 0.00 | 0.00 | 0.00 | 38 | 1017.9 |
| 20260510190525 | 72 | 13 | 3.0 | 6.0 | 0.00 | 0.00 | 0.00 | 40 | 1018.0 |
| 20260510185525 | 71 | 19 | 5.0 | 9.0 | 0.00 | 0.00 | 0.00 | 41 | 1018.0 |
| 20260510184545 | 70 | 3 | 6.0 | 9.0 | 0.00 | 0.00 | 0.00 | 40 | 1018.0 |
| 20260510183526 | 71 | 28 | 6.0 | 9.0 | 0.00 | 0.00 | 0.00 | 40 | 1018.0 |
| 20260510182526 | 71 | 341 | 4.0 | 9.0 | 0.00 | 0.00 | 0.00 | 42 | 1017.9 |
| 20260510181525 | 72 | 327 | 3.0 | 6.0 | 0.00 | 0.00 | 0.00 | 42 | 1017.9 |
| 20260510180526 | 70 | 15 | 6.0 | 9.0 | 0.00 | 0.00 | 0.00 | 41 | 1017.9 |
| 20260510175526 | 70 | 46 | 6.0 | 9.0 | 0.00 | 0.00 | 0.00 | 41 | 1018.0 |
| 20260510174525 | 71 | 14 | 6.0 | 9.0 | 0.00 | 0.00 | 0.00 | 44 | 1018.0 |
| 20260510173527 | 70 | 281 | 4.0 | 6.0 | 0.00 | 0.00 | 0.00 | 41 | 1018.0 |
| 20260510172526 | 70 | 4 | 7.0 | 11.0 | 0.00 | 0.00 | 0.00 | 41 | 1018.1 |
| 20260510171526 | 70 | 349 | 4.0 | 10.0 | 0.00 | 0.00 | 0.00 | 44 | 1018.0 |
| 20260510170526 | 70 | 50 | 5.0 | 8.0 | 0.00 | 0.00 | 0.00 | 41 | 1018.2 |
| 20260510165525 | 71 | 12 | 6.0 | 11.0 | 0.00 | 0.00 | 0.00 | 44 | 1017.9 |
| 20260510164525 | 69 | 224 | 3.0 | 8.0 | 0.00 | 0.00 | 0.00 | 41 | 1017.7 |
| 20260510163526 | 70 | 54 | 5.0 | 8.0 | 0.00 | 0.00 | 0.00 | 43 | 1017.6 |
| 20260510162525 | 69 | 0 | 3.0 | 6.0 | 0.00 | 0.00 | 0.00 | 48 | 1017.6 |
| 20260510161526 | 69 | 56 | 5.0 | 8.0 | 0.00 | 0.00 | 0.00 | 47 | 1017.7 |
| 20260510160547 | 68 | 16 | 4.0 | 8.0 | 0.00 | 0.00 | 0.00 | 46 | 1017.6 |
| 20260510155526 | 68 | 35 | 5.0 | 8.0 | 0.00 | 0.00 | 0.00 | 47 | 1017.8 |
| 20260510154526 | 67 | 54 | 5.0 | 10.0 | 0.00 | 0.00 | 0.00 | 48 | 1017.6 |
| 20260510153526 | 66 | 26 | 7.0 | 9.0 | 0.00 | 0.00 | 0.00 | 50 | 1017.5 |
| 20260510152526 | 67 | 17 | 6.0 | 8.0 | 0.00 | 0.00 | 0.00 | 47 | 1017.5 |
| 20260510151546 | 66 | 38 | 6.0 | 9.0 | 0.00 | 0.00 | 0.00 | 49 | 1017.5 |
| 20260510150546 | 65 | 16 | 7.0 | 9.0 | 0.00 | 0.00 | 0.00 | 49 | 1017.4 |
| 20260510145546 | 65 | 30 | 6.0 | 8.0 | 0.00 | 0.00 | 0.00 | 49 | 1017.2 |
| 20260510144526 | 65 | 17 | 6.0 | 7.0 | 0.00 | 0.00 | 0.00 | 49 | 1017.1 |
| 20260510143526 | 65 | 17 | 6.0 | 9.0 | 0.00 | 0.00 | 0.00 | 49 | 1017.1 |
| 20260510142526 | 63 | 25 | 6.0 | 8.0 | 0.00 | 0.00 | 0.00 | 50 | 1017.0 |
| 20260510141526 | 62 | 13 | 8.0 | 11.0 | 0.00 | 0.00 | 0.00 | 51 | 1016.9 |
| 20260510140546 | 62 | 15 | 7.0 | 9.0 | 0.00 | 0.00 | 0.00 | 53 | 1016.8 |
| 20260510135546 | 62 | 25 | 6.0 | 9.0 | 0.00 | 0.00 | 0.00 | 54 | 1016.8 |
| 20260510134546 | 62 | 9 | 5.0 | 7.0 | 0.00 | 0.00 | 0.00 | 54 | 1016.8 |
| 20260510133526 | 62 | 7 | 5.0 | 7.0 | 0.00 | 0.00 | 0.00 | 58 | 1016.7 |
| 20260510132526 | 61 | 10 | 4.0 | 7.0 | 0.00 | 0.00 | 0.00 | 59 | 1016.4 |
| 20260510131526 | 60 | 20 | 4.0 | 8.0 | 0.00 | 0.00 | 0.00 | 61 | 1016.1 |
| 20260510130526 | 60 | 18 | 6.0 | 8.0 | 0.00 | 0.00 | 0.00 | 59 | 1015.8 |
| 20260510125527 | 60 | 2 | 6.0 | 8.0 | 0.00 | 0.00 | 0.00 | 62 | 1015.5 |
| 20260510124527 | 60 | 18 | 5.0 | 8.0 | 0.00 | 0.00 | 0.00 | 62 | 1015.6 |
| 20260510123526 | 60 | 22 | 5.0 | 8.0 | 0.00 | 0.00 | 0.00 | 64 | 1015.4 |
| 20260510122526 | 59 | 11 | 7.0 | 10.0 | 0.00 | 0.00 | 0.00 | 65 | 1015.3 |
| 20260510121546 | 58 | 17 | 6.0 | 8.0 | 0.00 | 0.00 | 0.00 | 68 | 1015.0 |
| 20260510120526 | 58 | 6 | 5.0 | 7.0 | 0.00 | 0.00 | 0.00 | 70 | 1014.8 |
| 20260510115527 | 58 | 9 | 6.0 | 8.0 | 0.00 | 0.00 | 0.00 | 70 | 1014.5 |
| 20260510114526 | 57 | 10 | 6.0 | 7.0 | 0.00 | 0.00 | 0.00 | 72 | 1014.2 |
| 20260510113527 | 57 | 14 | 6.0 | 8.0 | 0.00 | 0.00 | 0.00 | 73 | 1013.9 |
| 20260510112526 | 56 | 26 | 5.0 | 7.0 | 0.00 | 0.00 | 0.00 | 74 | 1013.8 |
| 20260510111526 | 57 | 19 | 6.0 | 8.0 | 0.00 | 0.01 | 0.00 | 75 | 1013.6 |
| 20260510110527 | 57 | 23 | 6.0 | 8.0 | 0.00 | 0.01 | 0.00 | 77 | 1013.5 |
| 20260510105526 | 57 | 8 | 5.0 | 7.0 | 0.00 | 0.01 | 0.00 | 83 | 1013.3 |
| 20260510104547 | 57 | 33 | 5.0 | 7.0 | 0.00 | 0.01 | 0.00 | 87 | 1013.0 |
| 20260510103527 | 56 | 5 | 6.0 | 8.0 | 0.00 | 0.01 | 0.00 | 91 | 1013.1 |
| 20260510102526 | 56 | 9 | 4.0 | 7.0 | 0.00 | 0.01 | 0.00 | 93 | 1013.2 |
| 20260510101527 | 56 | 356 | 2.0 | 4.0 | 0.00 | 0.01 | 0.00 | 93 | 1013.3 |
| 20260510100547 | 55 | 356 | 1.0 | 4.0 | 0.00 | 0.01 | 0.00 | 93 | 1013.6 |
| 20260510095527 | 55 | 283 | 1.0 | 2.0 | 0.00 | 0.01 | 0.00 | 93 | 1013.7 |
| 20260510094527 | 54 | 240 | 3.0 | 6.0 | 0.00 | 0.01 | 0.00 | 94 | 1013.8 |
| 20260510093526 | 54 | 245 | 2.0 | 4.0 | 0.00 | 0.01 | 0.00 | 94 | 1013.4 |
| 20260510092527 | 54 | 0.0 | 0.0 | 0.00 | 0.02 | 0.00 | 93 | 1012.7 | |
| 20260510091527 | 54 | 354 | 0.0 | 3.0 | 0.00 | 0.02 | 0.00 | 93 | 1012.7 |
| 20260510090526 | 54 | 0.0 | 0.0 | 0.00 | 0.04 | 0.00 | 92 | 1012.6 | |
| 20260510085527 | 54 | 0.0 | 0.0 | 0.00 | 0.05 | 0.00 | 93 | 1012.4 | |
| 20260510084527 | 54 | 0.0 | 0.0 | 0.00 | 0.05 | 0.00 | 92 | 1012.3 | |
| 20260510083527 | 54 | 0.0 | 0.0 | 0.00 | 0.05 | 0.00 | 92 | 1012.3 | |
| 20260510082527 | 54 | 0.0 | 0.0 | 0.00 | 0.06 | 0.00 | 91 | 1012.1 | |
| 20260510081527 | 54 | 0.0 | 0.0 | 0.00 | 0.07 | 0.00 | 90 | 1012.0 | |
| 20260510080527 | 55 | 0.0 | 0.0 | 0.00 | 0.09 | 0.00 | 89 | 1011.8 | |
| 20260510075528 | 55 | 215 | 0.0 | 2.0 | 0.00 | 0.09 | 0.00 | 88 | 1011.8 |
| 20260510074527 | 56 | 0.0 | 0.0 | 0.00 | 0.10 | 0.00 | 87 | 1011.7 | |
| 20260510073527 | 56 | 194 | 0.0 | 3.0 | 0.00 | 0.11 | 0.00 | 86 | 1011.6 |
| 20260510072527 | 56 | 66 | 1.0 | 2.0 | 0.00 | 0.12 | 0.00 | 86 | 1011.4 |
| 20260510071527 | 56 | 320 | 2.0 | 4.0 | 0.00 | 0.13 | 0.00 | 86 | 1011.5 |
| 20260510070547 | 56 | 279 | 2.0 | 4.0 | 0.00 | 0.14 | 0.00 | 85 | 1011.2 |
| 20260510065547 | 56 | 179 | 2.0 | 2.0 | 0.00 | 0.15 | 0.00 | 85 | 1011.1 |
| 20260510064527 | 56 | 185 | 2.0 | 2.0 | 0.00 | 0.15 | 0.00 | 85 | 1011.2 |
| 20260510063527 | 56 | 220 | 2.0 | 3.0 | 0.00 | 0.15 | 0.00 | 86 | 1011.3 |
| 20260510062547 | 56 | 193 | 3.0 | 4.0 | 0.00 | 0.15 | 0.00 | 87 | 1011.2 |
| 20260510061547 | 56 | 196 | 2.0 | 3.0 | 0.00 | 0.15 | 0.00 | 88 | 1011.3 |
| 20260510060547 | 55 | 205 | 2.0 | 3.0 | 0.00 | 0.16 | 0.00 | 89 | 1011.6 |
| 20260510055527 | 56 | 0.0 | 0.0 | 0.00 | 0.17 | 0.00 | 89 | 1011.6 | |
| 20260510054547 | 55 | 0.0 | 0.0 | 0.00 | 0.17 | 0.00 | 87 | 1011.7 | |
| 20260510053547 | 56 | 0.0 | 0.0 | 0.00 | 0.18 | 0.00 | 86 | 1011.7 | |
| 20260510052527 | 56 | 0.0 | 0.0 | 0.00 | 0.18 | 0.00 | 86 | 1011.7 | |
| 20260510051527 | 56 | 0.0 | 0.0 | 0.00 | 0.18 | 0.00 | 86 | 1011.7 | |
| 20260510050527 | 56 | 0.0 | 0.0 | 0.00 | 0.18 | 0.00 | 86 | 1011.5 | |
| 20260510045527 | 57 | 0.0 | 0.0 | 0.00 | 0.18 | 0.00 | 85 | 1011.4 | |
| 20260510044548 | 57 | 0.0 | 0.0 | 0.00 | 0.18 | 0.00 | 85 | 1011.4 | |
| 20260510043527 | 57 | 212 | 1.0 | 2.0 | 0.00 | 0.18 | 0.00 | 86 | 1011.5 |
| 20260510042527 | 57 | 225 | 1.0 | 2.0 | 0.00 | 0.18 | 0.00 | 87 | 1011.5 |
| 20260510041548 | 56 | 0.0 | 0.0 | 0.00 | 0.18 | 0.00 | 85 | 1011.5 | |
| 20260510040527 | 56 | 223 | 0.0 | 2.0 | 0.00 | 0.19 | 0.00 | 86 | 1011.6 |
| 20260510035527 | 56 | 0.0 | 0.0 | 0.00 | 0.19 | 0.19 | 87 | 1011.6 | |
| 20260510034527 | 56 | 196 | 0.0 | 1.0 | 0.00 | 0.19 | 0.19 | 87 | 1011.6 |
| 20260510033527 | 56 | 0.0 | 0.0 | 0.00 | 0.19 | 0.19 | 85 | 1011.5 | |
| 20260510032528 | 57 | 0.0 | 0.0 | 0.00 | 0.20 | 0.19 | 84 | 1011.5 | |
| 20260510031527 | 57 | 272 | 0.0 | 2.0 | 0.00 | 0.20 | 0.19 | 85 | 1011.5 |
| 20260510030527 | 58 | 0.0 | 0.0 | 0.00 | 0.21 | 0.19 | 83 | 1011.5 | |
| 20260510025548 | 58 | 211 | 1.0 | 2.0 | 0.00 | 0.21 | 0.19 | 83 | 1011.4 |
| 20260510024527 | 58 | 0.0 | 0.0 | 0.00 | 0.22 | 0.19 | 81 | 1011.3 | |
| 20260510023548 | 58 | 0.0 | 0.0 | 0.00 | 0.22 | 0.19 | 79 | 1011.2 | |
| 20260510022527 | 59 | 0.0 | 0.0 | 0.00 | 0.23 | 0.19 | 78 | 1011.0 | |
| 20260510021527 | 60 | 0.0 | 0.0 | 0.00 | 0.24 | 0.19 | 78 | 1010.9 | |
| 20260510020528 | 60 | 0.0 | 0.0 | 0.00 | 0.24 | 0.19 | 74 | 1010.8 | |
| 20260510015528 | 60 | 0.0 | 0.0 | 0.00 | 0.24 | 0.19 | 74 | 1010.7 | |
| 20260510014527 | 61 | 0.0 | 0.0 | 0.00 | 0.24 | 0.19 | 71 | 1010.6 | |
| 20260510013528 | 62 | 0.0 | 0.0 | 0.00 | 0.24 | 0.19 | 71 | 1010.4 | |
| 20260510012527 | 63 | 221 | 0.0 | 2.0 | 0.00 | 0.24 | 0.19 | 69 | 1010.2 |
| 20260510011528 | 63 | 0.0 | 0.0 | 0.00 | 0.24 | 0.19 | 66 | 1010.0 | |
| 20260510010528 | 64 | 0.0 | 0.0 | 0.00 | 0.24 | 0.19 | 65 | 1009.9 | |
| 20260510005527 | 66 | 0.0 | 0.0 | 0.00 | 0.24 | 0.19 | 62 | 1009.8 | |
| 20260510004528 | 67 | 227 | 0.0 | 2.0 | 0.00 | 0.24 | 0.19 | 61 | 1009.7 |
| 20260510003528 | 68 | 234 | 1.0 | 3.0 | 0.00 | 0.24 | 0.19 | 57 | 1009.5 |
| 20260510002528 | 69 | 227 | 2.0 | 6.0 | 0.00 | 0.24 | 0.19 | 55 | 1009.3 |
| 20260510001548 | 70 | 224 | 3.0 | 6.0 | 0.00 | 0.24 | 0.19 | 53 | 1009.1 |
| 20260510000528 | 71 | 249 | 4.0 | 7.0 | 0.00 | 0.24 | 0.19 | 52 | 1008.9 |
| 20260509235528 | 72 | 224 | 5.0 | 8.0 | 0.00 | 0.24 | 0.19 | 50 | 1008.9 |
| 20260509234528 | 73 | 242 | 6.0 | 10.0 | 0.00 | 0.24 | 0.19 | 48 | 1008.8 |
| 20260509233528 | 73 | 252 | 5.0 | 10.0 | 0.00 | 0.24 | 0.19 | 47 | 1008.6 |
| 20260509232528 | 75 | 238 | 5.0 | 13.0 | 0.00 | 0.24 | 0.19 | 47 | 1008.5 |
| 20260509231528 | 75 | 220 | 5.0 | 9.0 | 0.00 | 0.24 | 0.19 | 48 | 1008.4 |
| 20260509230528 | 75 | 236 | 5.0 | 10.0 | 0.00 | 0.24 | 0.19 | 47 | 1008.3 |
| 20260509225608 | 75 | 229 | 7.0 | 10.0 | 0.00 | 0.24 | 0.19 | 49 | 1008.3 |
| 20260509224528 | 75 | 243 | 8.0 | 13.0 | 0.00 | 0.24 | 0.19 | 48 | 1008.3 |
| 20260509223528 | 76 | 213 | 7.0 | 14.0 | 0.00 | 0.24 | 0.19 | 47 | 1008.3 |
| 20260509222528 | 76 | 221 | 7.0 | 14.0 | 0.00 | 0.24 | 0.19 | 46 | 1008.3 |
| 20260509221528 | 76 | 275 | 7.0 | 11.0 | 0.00 | 0.24 | 0.19 | 45 | 1008.4 |
| 20260509220528 | 76 | 228 | 8.0 | 12.0 | 0.00 | 0.24 | 0.19 | 45 | 1008.4 |
| 20260509215528 | 76 | 217 | 10.0 | 16.0 | 0.00 | 0.24 | 0.19 | 46 | 1008.5 |
| 20260509214528 | 76 | 219 | 9.0 | 15.0 | 0.00 | 0.24 | 0.19 | 45 | 1008.3 |
| 20260509213528 | 76 | 223 | 9.0 | 13.0 | 0.00 | 0.24 | 0.19 | 47 | 1008.4 |
| 20260509212529 | 75 | 241 | 8.0 | 11.0 | 0.00 | 0.24 | 0.19 | 52 | 1008.5 |
| 20260509211528 | 75 | 211 | 10.0 | 16.0 | 0.00 | 0.24 | 0.19 | 51 | 1008.5 |
| 20260509210528 | 75 | 204 | 11.0 | 17.0 | 0.00 | 0.24 | 0.19 | 52 | 1008.5 |
| 20260509205528 | 75 | 204 | 11.0 | 17.0 | 0.00 | 0.24 | 0.19 | 52 | 1008.5 |
| 20260509204529 | 75 | 208 | 10.0 | 14.0 | 0.00 | 0.24 | 0.19 | 52 | 1008.5 |
| 20260509203529 | 75 | 209 | 11.0 | 15.0 | 0.00 | 0.24 | 0.19 | 52 | 1008.7 |